STARLINK-34292, 64390

Orbit data source: Space-Track

STARLINK-34292, 64390 is a payload satellite owned by SpaceX/Seattle (US) in LEO that was launched on Fri, 13 Jun 2025 UTC via an FALCON 9 launch vehicle from the Air Force Eastern Test Range (AFETR). Payload-class satellites include a variety of spacecraft equipped with specific instruments for various scientific and technological missions. These include communications satellites like Starlink; space stations such as the ISS; scientific satellites like the Hubble; Earth observation satellites from companies like Planet Labs, Umbra, and HawkEye 360; GPS; miniature CubeSats for education and research; and military/defense satellites.

Loading next visibility...
Identifier
64390, 2025-127W
Orbit
LEO
Country
Flag of USUS
Related business
Manufacturer
SpaceX/Seattle
Mission
Operational Commercial Communications
Bus & Motor
STARLINK V2MO, Unknown motor
Mass
575 kg wet, ~530 kg dry
Launch date (UTC)
2025-06-13 (10 months ago)
Launch vehicle
FALCON 9
Launch site
Air Force Eastern Test Range (AFETR)
Object type
Payload
Rocket body
Debris
Shape & HBR
Box + 2 Pan, 17.7 m
Radar Cross Section
36.964 m², Large (>1 m²)

Expand to show TLE details & history
Last TLE update: 12 hours ago

TLE from 12 hours ago
0 STARLINK-34292
1 64390U 25127W   26095.16230261  .00027313  00000-0  99712-3 0  9999
2 64390  43.0013  30.4552 0001009 279.9383  80.1354 15.27621682 46512
Epoch: 2026-04-05T03:53Z
TLE epoch observation values (Epoch: 2026-04-05T03:53:42.945Z)
Latitude
-0.00007°
Longitude
138.5545°
Altitude
482.581 km
Speed
7.626 km/s
True Right ascension
02h 01m 49s
True Declination
0° 00' 00"
Sunlit
Object was in daylight at epoch
Visualization orbit readout
Latitude
Unknown
Longitude
Unknown
Altitude
Unknown
Speed
Unknown
Apparent Right ascension
Unknown
Apparent Declination
Unknown
Sunlit
N/A
Visualization observer readout
Local Sidereal Time
22:16:08
Azimuth
Unknown
Elevation
Unknown
Doppler factor
Unknown
Orbital elements
Apogee altitude
485.562 km
Perigee altitude
484.177 km
Semi-major axis
6,863.006 km
Eccentricity
0.0001
Inclination
43.0013°
RAAN
30.4552°
Arg. of periapsis
279.9383°
True anomaly
80.14679°
Mean anomaly
80.1354°
Eccentric anomaly
80.1411°
Mean motion
3.81743 °/min
Orbital period
94.3 mins
BSTAR
0.00099712
Loading maneuver chart data...
Computing Atmospheric mass density...
Loading historical data...
Loading historical data...
Loading historical data...
Loading historical data...
Loading historical data...
Loading historical data...
Loading historical data...

Documentation

Showing up to 5 results
|